Hourly Weather Kitelya

Today, 27 October, Tuesday

Time Temperature Precipitation Wind Pressure Humidity
00:00 +7°C° 0.3 mm 5 mps 758 mmHg 94%
01:00 +7°C° 0.3 mm 5 mps 758 mmHg 95%
02:00 +7°C° 0.3 mm 5 mps 758 mmHg 96%
03:00 +8°C° 0.3 mm 5 mps 757 mmHg 96%
04:00 +8°C° 0.3 mm 6 mps 757 mmHg 96%
05:00 +8°C° 0.3 mm 6 mps 757 mmHg 96%
06:00 +8°C° 0.2 mm 6 mps 757 mmHg 95%
07:00 +8°C° 0.2 mm 6 mps 757 mmHg 95%
08:00 +8°C° 0.2 mm 6 mps 756 mmHg 95%
09:00 +8°C° 0.1 mm 6 mps 756 mmHg 94%
10:00 +9°C° 0.1 mm 6 mps 756 mmHg 93%
11:00 +9°C° 0.1 mm 6 mps 756 mmHg 93%
12:00 +8°C° 0.1 mm 6 mps 756 mmHg 92%
13:00 +8°C° 0.1 mm 6 mps 756 mmHg 91%
14:00 +8°C° 0.1 mm 7 mps 756 mmHg 90%
15:00 +8°C° 0 mm 7 mps 756 mmHg 89%
16:00 +8°C° 0 mm 7 mps 755 mmHg 89%
17:00 +8°C° 0 mm 7 mps 755 mmHg 89%
18:00 +9°C° 0 mm 7 mps 755 mmHg 89%
19:00 +9°C° 0 mm 6 mps 755 mmHg 89%
20:00 +9°C° 0 mm 6 mps 755 mmHg 89%
21:00 +9°C° 0.1 mm 6 mps 755 mmHg 90%
22:00 +9°C° 0.1 mm 6 mps 754 mmHg 91%
23:00 +9°C° 0.1 mm 6 mps 754 mmHg 92%

Tomorrow, 28 October, Wednesday

Time Temperature Precipitation Wind Pressure Humidity
00:00 +9°C° 0.1 mm 6 mps 754 mmHg 92%
01:00 +9°C° 0.1 mm 6 mps 754 mmHg 92%
02:00 +9°C° 0.1 mm 6 mps 754 mmHg 92%
03:00 +9°C° 0.1 mm 6 mps 753 mmHg 92%
04:00 +9°C° 0.1 mm 6 mps 753 mmHg 93%
05:00 +9°C° 0.1 mm 6 mps 752 mmHg 93%
06:00 +9°C° 0.7 mm 7 mps 752 mmHg 93%
07:00 +9°C° 0.7 mm 7 mps 751 mmHg 93%
08:00 +9°C° 0.7 mm 8 mps 751 mmHg 93%
09:00 +8°C° 1.5 mm 7 mps 751 mmHg 92%
10:00 +8°C° 1.5 mm 7 mps 751 mmHg 90%
11:00 +8°C° 1.5 mm 6 mps 751 mmHg 88%
12:00 +8°C° 0.2 mm 6 mps 752 mmHg 86%
13:00 +8°C° 0.2 mm 6 mps 753 mmHg 83%
14:00 +8°C° 0.2 mm 6 mps 754 mmHg 81%
15:00 +8°C° 0 mm 5 mps 754 mmHg 83%
16:00 +7°C° 0 mm 5 mps 755 mmHg 85%
17:00 +7°C° 0 mm 5 mps 755 mmHg 88%
18:00 +7°C° 0 mm 5 mps 756 mmHg 89%
19:00 +7°C° 0 mm 5 mps 756 mmHg 91%
20:00 +7°C° 0 mm 5 mps 756 mmHg 92%
21:00 +7°C° 0 mm 5 mps 756 mmHg 92%
22:00 +7°C° 0 mm 5 mps 756 mmHg 92%
23:00 +7°C° 0 mm 5 mps 756 mmHg 92%

Day after tomorrow, 29 October, Thursday

Time Temperature Precipitation Wind Pressure Humidity
00:00 +7°C° 0 mm 5 mps 756 mmHg 92%
01:00 +7°C° 0 mm 5 mps 756 mmHg 92%
02:00 +7°C° 0 mm 5 mps 756 mmHg 92%
03:00 +7°C° 0 mm 6 mps 755 mmHg 92%
04:00 +7°C° 0 mm 6 mps 755 mmHg 91%
05:00 +7°C° 0 mm 6 mps 754 mmHg 91%
06:00 +7°C° 0 mm 6 mps 754 mmHg 90%
07:00 +7°C° 0 mm 6 mps 754 mmHg 90%
08:00 +7°C° 0 mm 6 mps 754 mmHg 89%
09:00 +8°C° 0 mm 6 mps 755 mmHg 88%
10:00 +8°C° 0 mm 6 mps 755 mmHg 88%
11:00 +8°C° 0 mm 5 mps 755 mmHg 87%
12:00 +8°C° 0 mm 5 mps 755 mmHg 86%
13:00 +8°C° 0 mm 5 mps 755 mmHg 86%
14:00 +8°C° 0 mm 5 mps 755 mmHg 85%
15:00 +8°C° 0 mm 5 mps 755 mmHg 87%
16:00 +7°C° 0 mm 4 mps 755 mmHg 90%
17:00 +7°C° 0 mm 4 mps 755 mmHg 92%
18:00 +7°C° 0 mm 4 mps 756 mmHg 93%
19:00 +7°C° 0 mm 4 mps 756 mmHg 94%
20:00 +6°C° 0 mm 4 mps 756 mmHg 95%
21:00 +7°C° 0 mm 3 mps 756 mmHg 95%
22:00 +7°C° 0 mm 3 mps 756 mmHg 95%
23:00 +7°C° 0 mm 3 mps 756 mmHg 95%

30 October, Friday

Time Temperature Precipitation Wind Pressure Humidity
00:00 +7°C° 0 mm 3 mps 756 mmHg 95%
01:00 +7°C° 0 mm 3 mps 756 mmHg 96%
02:00 +7°C° 0 mm 3 mps 756 mmHg 96%
03:00 +7°C° 0 mm 3 mps 756 mmHg 96%
04:00 +5°C° 0 mm 3 mps 756 mmHg 97%
05:00 +5°C° 0 mm 3 mps 756 mmHg 97%
06:00 +7°C° 0 mm 3 mps 756 mmHg 97%
07:00 +7°C° 0 mm 3 mps 756 mmHg 97%
08:00 +7°C° 0 mm 3 mps 757 mmHg 97%
09:00 +7°C° 0 mm 3 mps 757 mmHg 96%
10:00 +8°C° 0 mm 3 mps 757 mmHg 94%
11:00 +8°C° 0 mm 2 mps 757 mmHg 93%
12:00 +8°C° 0.1 mm 2 mps 757 mmHg 93%
13:00 +8°C° 0.1 mm 2 mps 757 mmHg 92%
14:00 +8°C° 0.1 mm 2 mps 757 mmHg 92%
15:00 +8°C° 0.1 mm 2 mps 758 mmHg 93%
16:00 +9°C° 0.1 mm 1 mps 758 mmHg 95%
17:00 +8°C° 0.1 mm 1 mps 758 mmHg 96%
18:00 +8°C° 0.2 mm 1 mps 759 mmHg 95%
19:00 +8°C° 0.2 mm 1 mps 759 mmHg 94%
20:00 +8°C° 0.2 mm 1 mps 759 mmHg 94%
21:00 +6°C° 0 mm 2 mps 760 mmHg 93%
22:00 +6°C° 0 mm 2 mps 760 mmHg 93%
23:00 +5°C° 0 mm 2 mps 761 mmHg 93%

31 October, Saturday

Time Temperature Precipitation Wind Pressure Humidity
00:00 +5°C° 0 mm 2 mps 761 mmHg 93%
01:00 +4°C° 0 mm 2 mps 762 mmHg 94%
02:00 +5°C° 0 mm 1 mps 762 mmHg 94%
03:00 +4°C° 0 mm 2 mps 763 mmHg 94%
04:00 +4°C° 0 mm 2 mps 763 mmHg 94%
05:00 +3°C° 0 mm 2 mps 763 mmHg 94%
06:00 +3°C° 0 mm 2 mps 764 mmHg 93%
07:00 +3°C° 0 mm 2 mps 764 mmHg 91%
08:00 +3°C° 0 mm 2 mps 765 mmHg 90%
09:00 +4°C° 0 mm 2 mps 765 mmHg 87%
10:00 +4°C° 0 mm 2 mps 766 mmHg 84%
11:00 +5°C° 0 mm 2 mps 766 mmHg 81%
12:00 +6°C° 0 mm 1 mps 767 mmHg 80%
13:00 +6°C° 0 mm 1 mps 767 mmHg 80%
14:00 +6°C° 0 mm 1 mps 767 mmHg 80%
15:00 +5°C° 0 mm 1 mps 767 mmHg 83%
16:00 +4°C° 0 mm 1 mps 768 mmHg 87%
17:00 +3°C° 0 mm 1 mps 768 mmHg 90%
18:00 +3°C° 0 mm 1 mps 768 mmHg 91%
19:00 +3°C° 0 mm 1 mps 768 mmHg 91%
20:00 +3°C° 0 mm 1 mps 769 mmHg 92%
21:00 +3°C° 0 mm 1 mps 769 mmHg 91%
22:00 +3°C° 0 mm 1 mps 769 mmHg 91%
23:00 +3°C° 0 mm 1 mps 769 mmHg 90%

1 November, Sunday

Time Temperature Precipitation Wind Pressure Humidity
00:00 +2°C° 0 mm 2 mps 769 mmHg 90%
01:00 +2°C° 0 mm 2 mps 769 mmHg 90%
02:00 +2°C° 0 mm 2 mps 769 mmHg 90%
03:00 +3°C° 0 mm 2 mps 769 mmHg 91%
04:00 +3°C° 0 mm 2 mps 769 mmHg 91%
05:00 +3°C° 0 mm 2 mps 769 mmHg 92%
06:00 +3°C° 0 mm 2 mps 769 mmHg 92%
07:00 +3°C° 0 mm 2 mps 769 mmHg 93%
08:00 +2°C° 0 mm 3 mps 769 mmHg 94%
09:00 +3°C° 0 mm 3 mps 769 mmHg 93%
10:00 +4°C° 0 mm 3 mps 769 mmHg 93%
11:00 +5°C° 0 mm 3 mps 769 mmHg 93%
12:00 +5°C° 0 mm 3 mps 769 mmHg 92%
13:00 +5°C° 0 mm 3 mps 769 mmHg 92%
14:00 +6°C° 0 mm 4 mps 769 mmHg 92%
15:00 +5°C° 0 mm 4 mps 769 mmHg 93%
16:00 +5°C° 0 mm 4 mps 769 mmHg 94%
17:00 +5°C° 0 mm 3 mps 769 mmHg 95%
18:00 +5°C° 0 mm 4 mps 769 mmHg 94%
19:00 +5°C° 0 mm 4 mps 769 mmHg 94%
20:00 +6°C° 0 mm 4 mps 769 mmHg 93%
21:00 +6°C° 0 mm 4 mps 769 mmHg 92%
22:00 +6°C° 0 mm 5 mps 769 mmHg 92%
23:00 +6°C° 0 mm 5 mps 769 mmHg 91%
Show more